QPF
0.01 0.00 0.00 0.00 0.00 0.00 0.00 0.00 0.00 0.02 0.04 0.04 0.09 0.11 0.10 0.02 0.00 0.00 0.00 0.00 0.01 0.01 0.01 0.02 0.02 0.03 0.03 0.04 0.05 0.06 0.06 0.08 0.09 0.09 0.12 0.11 0.10 0.10 0.11 0.12 0.11 0.13 0.13 0.12
0.02 0.01 0.01 0.01 0.00 0.00 0.00 0.00 0.01 0.03 0.06 0.07 0.09 0.13 0.10 0.02 0.01 0.01 0.01 0.00 0.00 0.00 0.01 0.03 0.04 0.04 0.04 0.05 0.05 0.06 0.08 0.10 0.10 0.11 0.14 0.13 0.12 0.12 0.12 0.10 0.11 0.13 0.14 0.14
0.03 0.03 0.02 0.02 0.01 0.00 0.00 0.00 0.01 0.05 0.12 0.16 0.05 0.04 0.03 0.02 0.01 0.01 0.00 0.01 0.01 0.01 0.01 0.05 0.09 0.07 0.06 0.06 0.05 0.06 0.07 0.08 0.09 0.11 0.13 0.13 0.13 0.13 0.14 0.13 0.14 0.15 0.17 0.17
0.02 0.05 0.04 0.03 0.01 0.01 0.01 0.01 0.01 0.06 0.09 0.12 0.06 0.02 0.02 0.01 0.01 0.01 0.01 0.01 0.01 0.01 0.01 0.02 0.07 0.10 0.09 0.06 0.05 0.06 0.07 0.06 0.08 0.10 0.10 0.11 0.12 0.12 0.12 0.13 0.14 0.15 0.18 0.18
0.03 0.09 0.06 0.03 0.02 0.01 0.01 0.02 0.04 0.06 0.04 0.03 0.02 0.01 0.02 0.01 0.01 0.01 0.01 0.01 0.01 0.01 0.01 0.01 0.03 0.05 0.08 0.08 0.07 0.06 0.05 0.04 0.05 0.06 0.08 0.08 0.10 0.11 0.11 0.12 0.15 0.18 0.21 0.21
0.04 0.08 0.07 0.05 0.03 0.02 0.03 0.06 0.06 0.05 0.06 0.04 0.01 0.03 0.03 0.01 0.01 0.01 0.00 0.00 0.00 0.00 0.00 0.01 0.03 0.05 0.06 0.07 0.08 0.08 0.06 0.06 0.06 0.07 0.07 0.10 0.13 0.18 0.18 0.16 0.16 0.19 0.19 0.19
0.05 0.09 0.12 0.07 0.05 0.05 0.07 0.10 0.09 0.07 0.06 0.05 0.04 0.05 0.03 0.01 0.01 0.01 0.01 0.01 0.00 0.00 0.01 0.03 0.04 0.05 0.05 0.06 0.07 0.08 0.07 0.07 0.07 0.07 0.07 0.08 0.10 0.13 0.17 0.18 0.17 0.15 0.13 0.12
0.05 0.10 0.17 0.08 0.05 0.09 0.12 0.10 0.09 0.09 0.06 0.06 0.06 0.05 0.04 0.02 0.01 0.01 0.01 0.01 0.01 0.01 0.02 0.03 0.04 0.04 0.05 0.05 0.06 0.07 0.07 0.07 0.07 0.07 0.07 0.06 0.07 0.09 0.12 0.14 0.13 0.10 0.08 0.07
0.09 0.14 0.15 0.08 0.07 0.08 0.07 0.06 0.04 0.08 0.14 0.14 0.13 0.11 0.08 0.03 0.01 0.01 0.01 0.01 0.02 0.03 0.03 0.03 0.04 0.04 0.05 0.06 0.07 0.08 0.09 0.07 0.07 0.07 0.09 0.08 0.07 0.07 0.07 0.07 0.07 0.07 0.07 0.07
0.09 0.12 0.09 0.04 0.02 0.02 0.03 0.03 0.03 0.04 0.07 0.09 0.09 0.08 0.04 0.01 0.01 0.01 0.02 0.01 0.02 0.06 0.07 0.06 0.05 0.04 0.04 0.05 0.06 0.07 0.07 0.06 0.05 0.05 0.06 0.07 0.06 0.05 0.05 0.06 0.06 0.05 0.05 0.06
0.14 0.11 0.06 0.02 0.01 0.01 0.02 0.03 0.03 0.02 0.02 0.04 0.06 0.04 0.02 0.01 0.01 0.02 0.02 0.02 0.04 0.08 0.08 0.07 0.05 0.04 0.04 0.05 0.04 0.04 0.04 0.04 0.05 0.04 0.04 0.03 0.03 0.02 0.03 0.03 0.03 0.03 0.04 0.05
0.16 0.12 0.08 0.04 0.02 0.02 0.02 0.03 0.03 0.02 0.03 0.04 0.06 0.05 0.03 0.02 0.01 0.01 0.02 0.03 0.04 0.06 0.06 0.06 0.04 0.03 0.04 0.05 0.04 0.03 0.03 0.04 0.04 0.04 0.03 0.03 0.02 0.02 0.02 0.02 0.02 0.01 0.01 0.02
0.06 0.05 0.07 0.06 0.04 0.02 0.02 0.03 0.03 0.04 0.05 0.05 0.07 0.06 0.04 0.03 0.01 0.01 0.02 0.03 0.03 0.03 0.03 0.04 0.03 0.04 0.03 0.03 0.03 0.02 0.02 0.02 0.02 0.03 0.03 0.03 0.03 0.02 0.02 0.02 0.01 0.01 0.01 0.02
0.04 0.05 0.05 0.04 0.04 0.03 0.03 0.03 0.03 0.06 0.08 0.07 0.06 0.07 0.05 0.02 0.02 0.03 0.03 0.03 0.02 0.01 0.01 0.01 0.01 0.02 0.03 0.03 0.02 0.02 0.02 0.02 0.02 0.02 0.02 0.03 0.03 0.02 0.02 0.02 0.02 0.02 0.02 0.02
0.04 0.05 0.04 0.02 0.02 0.04 0.05 0.05 0.05 0.07 0.10 0.10 0.07 0.05 0.04 0.03 0.03 0.03 0.04 0.04 0.02 0.01 0.01 0.01 0.01 0.01 0.02 0.03 0.03 0.02 0.01 0.01 0.01 0.02 0.02 0.02 0.02 0.02 0.02 0.03 0.03 0.03 0.03 0.03
0.03 0.04 0.03 0.02 0.02 0.04 0.07 0.08 0.07 0.06 0.07 0.09 0.07 0.06 0.05 0.03 0.03 0.02 0.02 0.02 0.02 0.02 0.02 0.01 0.01 0.01 0.01 0.01 0.04 0.05 0.03 0.02 0.01 0.01 0.02 0.02 0.01 0.01 0.02 0.03 0.03 0.03 0.02 0.01
0.04 0.06 0.05 0.03 0.03 0.05 0.06 0.09 0.08 0.06 0.05 0.07 0.07 0.06 0.05 0.04 0.02 0.01 0.01 0.01 0.02 0.01 0.01 0.01 0.01 0.01 0.01 0.01 0.01 0.02 0.03 0.02 0.01 0.01 0.01 0.01 0.01 0.01 0.01 0.01 0.02 0.01 0.01 0.01
0.04 0.04 0.03 0.02 0.04 0.07 0.08 0.08 0.07 0.06 0.06 0.06 0.06 0.06 0.05 0.03 0.02 0.01 0.01 0.01 0.02 0.02 0.02 0.02 0.02 0.01 0.01 0.01 0.01 0.01 0.00 0.01 0.01 0.01 0.01 0.01 0.00 0.00 0.00 0.00 0.00 0.01 0.01 0.01
0.05 0.04 0.04 0.05 0.05 0.06 0.07 0.07 0.06 0.05 0.05 0.05 0.04 0.04 0.04 0.03 0.01 0.01 0.01 0.01 0.01 0.01 0.01 0.02 0.02 0.02 0.01 0.01 0.00 0.00 0.00 0.00 0.00 0.00 0.00 0.00 0.00 0.00 0.00 0.00 0.00 0.00 0.00 0.01
0.05 0.05 0.06 0.06 0.06 0.05 0.05 0.05 0.07 0.07 0.05 0.05 0.04 0.03 0.03 0.02 0.01 0.01 0.01 0.01 0.01 0.02 0.01 0.01 0.01 0.01 0.01 0.00 0.00 0.00 0.00 0.00 0.00 0.00 0.00 0.00 0.00 0.00 0.00 0.00 0.00 0.00 0.00 0.01
0.05 0.06 0.06 0.06 0.05 0.04 0.03 0.03 0.03 0.05 0.05 0.06 0.06 0.04 0.03 0.02 0.01 0.01 0.01 0.01 0.01 0.01 0.01 0.01 0.00 0.00 0.00 0.00 0.00 0.00 0.00 0.00 0.00 0.00 0.00 0.00 0.00 0.00 0.00 0.00 0.00 0.00 0.00 0.00
0.04 0.06 0.06 0.04 0.03 0.03 0.02 0.02 0.02 0.02 0.04 0.07 0.05 0.04 0.03 0.03 0.02 0.02 0.02 0.01 0.01 0.01 0.01 0.00 0.00 0.00 0.00 0.00 0.00 0.00 0.00 0.00 0.00 0.00 0.00 0.00 0.00 0.00 0.00 0.00 0.00 0.00 0.00 0.00
0.05 0.06 0.06 0.04 0.03 0.03 0.02 0.02 0.01 0.02 0.03 0.05 0.05 0.03 0.03 0.03 0.03 0.02 0.02 0.01 0.01 0.01 0.01 0.01 0.01 0.00 0.00 0.00 0.00 0.00 0.00 0.00 0.00 0.00 0.00 0.00 0.00 0.00 0.00 0.00 0.00 0.00 0.00 0.00
0.07 0.07 0.06 0.05 0.04 0.03 0.04 0.03 0.02 0.02 0.03 0.03 0.03 0.02 0.03 0.02 0.02 0.01 0.01 0.00 0.01 0.00 0.00 0.00 0.00 0.00 0.00 0.00 0.00 0.00 0.00 0.01 0.01 0.01 0.00 0.00 0.00 0.00 0.00 0.00 0.00 0.00 0.00 0.00
0.08 0.08 0.06 0.05 0.04 0.04 0.04 0.04 0.04 0.03 0.02 0.02 0.01 0.01 0.01 0.01 0.01 0.01 0.01 0.00 0.00 0.00 0.00 0.00 0.00 0.00 0.00 0.00 0.00 0.00 0.00 0.00 0.01 0.01 0.01 0.00 0.00 0.00 0.00 0.00 0.00 0.00 0.00 0.00
0.09 0.08 0.06 0.05 0.03 0.04 0.04 0.04 0.03 0.03 0.02 0.02 0.02 0.01 0.00 0.00 0.01 0.01 0.00 0.00 0.00 0.00 0.00 0.00 0.00 0.00 0.00 0.00 0.00 0.00 0.00 0.00 0.00 0.00 0.00 0.01 0.00 0.00 0.00 0.00 0.00 0.00 0.00 0.00
0.07 0.07 0.07 0.06 0.04 0.04 0.03 0.03 0.02 0.02 0.02 0.02 0.02 0.01 0.00 0.00 0.01 0.01 0.00 0.00 0.00 0.00 0.00 0.00 0.00 0.00 0.00 0.00 0.00 0.00 0.00 0.00 0.00 0.00 0.00 0.00 0.00 0.00 0.00 0.00 0.00 0.00 0.00 0.00
MSLP
1002.60 1002.82 1002.98 1003.12 1003.27 1003.47 1003.71 1004.01 1004.35 1004.72 1005.10 1005.48 1005.86 1006.23 1006.62 1007.04 1007.49 1007.98 1008.51 1009.07 1009.63 1010.14 1010.59 1010.94 1011.16 1011.24 1011.19 1011.02 1010.77 1010.47 1010.16 1009.88 1009.66 1009.52 1009.46 1009.50 1009.62 1009.81 1010.06 1010.34 1010.65 1010.97 1011.30 1011.63
1002.69 1002.79 1002.79 1002.74 1002.69 1002.70 1002.81 1003.04 1003.41 1003.89 1004.48 1005.13 1005.82 1006.51 1007.19 1007.83 1008.43 1008.99 1009.52 1010.00 1010.44 1010.82 1011.15 1011.40 1011.56 1011.63 1011.62 1011.52 1011.35 1011.15 1010.93 1010.73 1010.58 1010.48 1010.45 1010.50 1010.62 1010.79 1011.01 1011.26 1011.51 1011.77 1012.03 1012.28
1002.90 1002.91 1002.78 1002.58 1002.37 1002.24 1002.25 1002.44 1002.84 1003.44 1004.21 1005.09 1006.04 1006.99 1007.90 1008.72 1009.43 1010.04 1010.54 1010.94 1011.27 1011.55 1011.76 1011.94 1012.07 1012.15 1012.18 1012.15 1012.08 1011.98 1011.85 1011.73 1011.63 1011.57 1011.57 1011.62 1011.73 1011.88 1012.07 1012.28 1012.50 1012.70 1012.89 1013.07
1003.21 1003.16 1002.95 1002.65 1002.34 1002.12 1002.07 1002.24 1002.67 1003.35 1004.25 1005.30 1006.44 1007.57 1008.64 1009.58 1010.37 1011.00 1011.47 1011.82 1012.07 1012.27 1012.42 1012.56 1012.68 1012.79 1012.88 1012.93 1012.95 1012.93 1012.88 1012.82 1012.77 1012.73 1012.73 1012.78 1012.87 1013.01 1013.17 1013.35 1013.53 1013.69 1013.83 1013.95
1003.54 1003.47 1003.23 1002.90 1002.56 1002.30 1002.22 1002.39 1002.84 1003.57 1004.53 1005.67 1006.91 1008.14 1009.30 1010.31 1011.14 1011.78 1012.24 1012.56 1012.78 1012.94 1013.08 1013.22 1013.37 1013.52 1013.68 1013.80 1013.90 1013.95 1013.96 1013.94 1013.91 1013.88 1013.88 1013.91 1013.99 1014.11 1014.26 1014.42 1014.58 1014.71 1014.81 1014.88
1003.84 1003.79 1003.58 1003.27 1002.94 1002.70 1002.63 1002.80 1003.26 1003.99 1004.97 1006.13 1007.39 1008.65 1009.82 1010.85 1011.70 1012.35 1012.81 1013.14 1013.36 1013.54 1013.70 1013.88 1014.08 1014.29 1014.51 1014.70 1014.86 1014.96 1015.01 1015.02 1015.00 1014.97 1014.96 1014.99 1015.06 1015.17 1015.31 1015.46 1015.61 1015.72 1015.80 1015.84
1004.08 1004.08 1003.94 1003.70 1003.44 1003.25 1003.21 1003.40 1003.84 1004.56 1005.50 1006.62 1007.84 1009.06 1010.21 1011.22 1012.06 1012.71 1013.19 1013.54 1013.80 1014.03 1014.25 1014.49 1014.75 1015.03 1015.31 1015.56 1015.76 1015.90 1015.98 1016.00 1015.98 1015.96 1015.95 1015.98 1016.05 1016.16 1016.30 1016.46 1016.61 1016.73 1016.80 1016.82
1004.27 1004.34 1004.29 1004.15 1003.98 1003.87 1003.89 1004.10 1004.54 1005.22 1006.10 1007.14 1008.27 1009.42 1010.49 1011.46 1012.27 1012.92 1013.42 1013.81 1014.14 1014.42 1014.71 1015.02 1015.35 1015.70 1016.02 1016.32 1016.55 1016.71 1016.80 1016.84 1016.84 1016.82 1016.82 1016.86 1016.95 1017.08 1017.24 1017.41 1017.57 1017.70 1017.77 1017.79
1004.46 1004.60 1004.65 1004.62 1004.57 1004.56 1004.65 1004.89 1005.32 1005.95 1006.75 1007.70 1008.72 1009.75 1010.74 1011.64 1012.41 1013.06 1013.59 1014.02 1014.40 1014.76 1015.11 1015.48 1015.87 1016.25 1016.61 1016.93 1017.18 1017.36 1017.46 1017.51 1017.53 1017.54 1017.57 1017.63 1017.75 1017.91 1018.10 1018.30 1018.48 1018.62 1018.70 1018.71
1004.71 1004.91 1005.05 1005.14 1005.20 1005.29 1005.46 1005.74 1006.17 1006.75 1007.48 1008.31 1009.22 1010.14 1011.04 1011.86 1012.59 1013.22 1013.76 1014.23 1014.66 1015.07 1015.47 1015.89 1016.30 1016.70 1017.08 1017.40 1017.65 1017.83 1017.95 1018.02 1018.06 1018.11 1018.18 1018.29 1018.45 1018.65 1018.88 1019.11 1019.31 1019.46 1019.55 1019.56
1005.06 1005.31 1005.53 1005.72 1005.89 1006.08 1006.32 1006.65 1007.08 1007.62 1008.27 1009.01 1009.81 1010.63 1011.42 1012.17 1012.86 1013.47 1014.02 1014.51 1014.97 1015.41 1015.84 1016.27 1016.68 1017.08 1017.44 1017.74 1017.98 1018.16 1018.29 1018.38 1018.45 1018.54 1018.66 1018.82 1019.03 1019.27 1019.54 1019.80 1020.02 1020.19 1020.28 1020.29
1005.50 1005.80 1006.09 1006.36 1006.63 1006.92 1007.23 1007.59 1008.03 1008.54 1009.13 1009.79 1010.50 1011.22 1011.94 1012.62 1013.27 1013.86 1014.40 1014.90 1015.37 1015.82 1016.25 1016.66 1017.05 1017.42 1017.74 1018.01 1018.22 1018.39 1018.51 1018.62 1018.73 1018.85 1019.02 1019.23 1019.48 1019.77 1020.07 1020.36 1020.60 1020.78 1020.87 1020.88
1005.96 1006.31 1006.67 1007.03 1007.39 1007.75 1008.13 1008.53 1008.98 1009.48 1010.03 1010.63 1011.26 1011.91 1012.56 1013.20 1013.81 1014.38 1014.92 1015.41 1015.88 1016.32 1016.73 1017.11 1017.46 1017.77 1018.03 1018.25 1018.42 1018.56 1018.68 1018.80 1018.93 1019.09 1019.29 1019.55 1019.84 1020.16 1020.48 1020.78 1021.04 1021.23 1021.33 1021.34
1006.37 1006.77 1007.21 1007.65 1008.10 1008.54 1008.98 1009.43 1009.90 1010.39 1010.92 1011.47 1012.06 1012.66 1013.26 1013.87 1014.45 1015.01 1015.54 1016.04 1016.49 1016.91 1017.29 1017.62 1017.91 1018.16 1018.36 1018.52 1018.64 1018.75 1018.85 1018.96 1019.11 1019.29 1019.52 1019.80 1020.12 1020.46 1020.79 1021.11 1021.37 1021.56 1021.67 1021.69
1006.64 1007.12 1007.64 1008.18 1008.72 1009.24 1009.75 1010.25 1010.75 1011.25 1011.76 1012.29 1012.85 1013.42 1014.00 1014.58 1015.16 1015.72 1016.25 1016.73 1017.18 1017.58 1017.92 1018.20 1018.43 1018.61 1018.74 1018.84 1018.91 1018.98 1019.06 1019.16 1019.30 1019.50 1019.74 1020.04 1020.36 1020.71 1021.05 1021.36 1021.62 1021.82 1021.94 1021.99
1006.74 1007.33 1007.96 1008.60 1009.23 1009.85 1010.43 1010.98 1011.51 1012.03 1012.54 1013.07 1013.61 1014.16 1014.73 1015.31 1015.89 1016.45 1016.98 1017.47 1017.90 1018.28 1018.59 1018.83 1019.00 1019.12 1019.19 1019.23 1019.26 1019.29 1019.34 1019.43 1019.56 1019.76 1020.00 1020.30 1020.63 1020.97 1021.30 1021.61 1021.87 1022.07 1022.20 1022.27
1006.72 1007.43 1008.18 1008.94 1009.68 1010.39 1011.04 1011.65 1012.22 1012.75 1013.28 1013.80 1014.33 1014.88 1015.45 1016.03 1016.61 1017.17 1017.71 1018.20 1018.63 1018.99 1019.27 1019.47 1019.60 1019.67 1019.69 1019.68 1019.67 1019.67 1019.70 1019.77 1019.90 1020.09 1020.34 1020.63 1020.95 1021.28 1021.60 1021.90 1022.15 1022.35 1022.49 1022.58
1006.70 1007.54 1008.42 1009.30 1010.14 1010.93 1011.65 1012.30 1012.90 1013.46 1013.99 1014.51 1015.04 1015.59 1016.15 1016.73 1017.31 1017.88 1018.42 1018.91 1019.32 1019.67 1019.92 1020.10 1020.19 1020.23 1020.21 1020.17 1020.13 1020.11 1020.13 1020.20 1020.33 1020.52 1020.76 1021.04 1021.35 1021.67 1021.98 1022.26 1022.50 1022.70 1022.85 1022.95
1006.84 1007.82 1008.81 1009.78 1010.70 1011.56 1012.33 1013.01 1013.63 1014.20 1014.73 1015.24 1015.76 1016.30 1016.85 1017.42 1017.99 1018.55 1019.08 1019.56 1019.97 1020.30 1020.53 1020.69 1020.76 1020.77 1020.74 1020.68 1020.63 1020.61 1020.63 1020.70 1020.83 1021.02 1021.27 1021.55 1021.85 1022.16 1022.45 1022.71 1022.94 1023.13 1023.27 1023.38
1007.31 1008.37 1009.44 1010.48 1011.45 1012.33 1013.12 1013.82 1014.43 1014.99 1015.50 1016.00 1016.50 1017.01 1017.54 1018.09 1018.65 1019.19 1019.70 1020.16 1020.55 1020.86 1021.08 1021.21 1021.27 1021.27 1021.23 1021.18 1021.13 1021.12 1021.15 1021.24 1021.38 1021.58 1021.84 1022.12 1022.41 1022.71 1022.99 1023.23 1023.44 1023.61 1023.74 1023.85
1008.16 1009.27 1010.37 1011.42 1012.39 1013.26 1014.03 1014.70 1015.29 1015.81 1016.29 1016.76 1017.22 1017.71 1018.21 1018.73 1019.25 1019.77 1020.25 1020.68 1021.05 1021.34 1021.54 1021.67 1021.72 1021.72 1021.69 1021.64 1021.61 1021.62 1021.67 1021.78 1021.94 1022.16 1022.42 1022.70 1023.00 1023.28 1023.54 1023.77 1023.96 1024.11 1024.23 1024.32
1009.38 1010.48 1011.55 1012.56 1013.47 1014.29 1014.99 1015.61 1016.14 1016.61 1017.04 1017.47 1017.89 1018.34 1018.81 1019.29 1019.78 1020.26 1020.71 1021.12 1021.46 1021.73 1021.92 1022.04 1022.09 1022.10 1022.09 1022.06 1022.06 1022.09 1022.17 1022.30 1022.48 1022.71 1022.98 1023.27 1023.56 1023.83 1024.08 1024.29 1024.46 1024.59 1024.68 1024.75
1010.83 1011.86 1012.84 1013.75 1014.57 1015.28 1015.90 1016.42 1016.88 1017.29 1017.68 1018.06 1018.45 1018.85 1019.29 1019.74 1020.20 1020.65 1021.07 1021.45 1021.77 1022.03 1022.21 1022.33 1022.40 1022.42 1022.43 1022.43 1022.45 1022.51 1022.62 1022.77 1022.97 1023.21 1023.48 1023.77 1024.05 1024.31 1024.54 1024.74 1024.89 1025.00 1025.08 1025.13
1012.29 1013.21 1014.06 1014.83 1015.52 1016.11 1016.61 1017.05 1017.43 1017.78 1018.12 1018.46 1018.82 1019.20 1019.61 1020.04 1020.48 1020.90 1021.30 1021.66 1021.97 1022.22 1022.41 1022.54 1022.62 1022.67 1022.71 1022.74 1022.80 1022.88 1023.01 1023.18 1023.39 1023.63 1023.90 1024.17 1024.44 1024.69 1024.91 1025.09 1025.23 1025.33 1025.39 1025.43
1013.56 1014.33 1015.03 1015.65 1016.19 1016.65 1017.05 1017.40 1017.72 1018.02 1018.33 1018.65 1019.00 1019.37 1019.77 1020.19 1020.61 1021.03 1021.42 1021.77 1022.08 1022.33 1022.53 1022.68 1022.79 1022.87 1022.94 1023.00 1023.09 1023.20 1023.34 1023.52 1023.73 1023.96 1024.22 1024.48 1024.73 1024.96 1025.17 1025.34 1025.47 1025.57 1025.63 1025.67
1014.45 1015.07 1015.61 1016.09 1016.50 1016.85 1017.17 1017.46 1017.74 1018.03 1018.33 1018.65 1019.01 1019.39 1019.80 1020.22 1020.64 1021.05 1021.44 1021.79 1022.10 1022.37 1022.58 1022.76 1022.90 1023.01 1023.12 1023.22 1023.33 1023.46 1023.61 1023.79 1023.99 1024.22 1024.45 1024.69 1024.91 1025.13 1025.32 1025.49 1025.62 1025.72 1025.79 1025.84
1014.89 1015.37 1015.78 1016.14 1016.46 1016.75 1017.02 1017.29 1017.57 1017.87 1018.19 1018.55 1018.93 1019.34 1019.76 1020.19 1020.62 1021.03 1021.42 1021.77 1022.09 1022.36 1022.60 1022.80 1022.97 1023.12 1023.25 1023.39 1023.53 1023.67 1023.83 1024.01 1024.20 1024.40 1024.61 1024.82 1025.02 1025.22 1025.40 1025.55 1025.69 1025.80 1025.89 1025.95
Thickness
5770 5784 5787 5784 5787 5793 5791 5792 5785 5787 5785 5788 5796 5797 5797 5802 5801 5797 5792 5789 5786 5783 5781 5781 5779 5778 5777 5775 5773 5771 5767 5763 5760 5759 5757 5755 5753 5751 5749 5747 5745 5742 5740 5738
5757 5774 5780 5779 5787 5793 5794 5795 5794 5791 5783 5797 5799 5796 5792 5794 5793 5789 5786 5784 5782 5779 5777 5775 5774 5773 5772 5770 5767 5765 5762 5759 5757 5755 5753 5751 5748 5746 5743 5741 5739 5738 5736 5733
5743 5762 5765 5759 5779 5786 5791 5796 5794 5781 5779 5787 5786 5785 5785 5788 5788 5783 5781 5779 5776 5773 5772 5771 5770 5769 5766 5765 5763 5760 5756 5754 5752 5750 5748 5745 5744 5741 5738 5735 5734 5732 5730 5729
5738 5743 5726 5763 5796 5795 5789 5791 5797 5789 5784 5782 5782 5783 5785 5786 5782 5778 5776 5773 5770 5769 5768 5767 5766 5765 5763 5761 5758 5754 5751 5749 5748 5745 5743 5740 5738 5735 5733 5731 5728 5726 5724 5723
5728 5724 5736 5762 5782 5786 5777 5772 5785 5781 5779 5779 5780 5775 5771 5777 5776 5772 5770 5767 5765 5764 5762 5761 5759 5759 5757 5753 5750 5747 5745 5743 5742 5740 5738 5735 5732 5730 5728 5725 5723 5720 5718 5716
5721 5713 5716 5746 5773 5786 5776 5753 5771 5774 5770 5772 5771 5759 5754 5766 5767 5764 5763 5761 5758 5757 5756 5753 5751 5752 5748 5744 5741 5738 5737 5736 5736 5734 5731 5729 5727 5724 5722 5719 5716 5713 5710 5708
5713 5711 5721 5746 5765 5772 5743 5740 5761 5764 5764 5766 5764 5761 5758 5760 5757 5756 5754 5752 5751 5749 5746 5744 5744 5743 5739 5736 5733 5733 5732 5731 5729 5727 5724 5723 5721 5718 5715 5712 5708 5705 5702 5699
5712 5704 5708 5742 5752 5742 5740 5757 5758 5760 5760 5758 5756 5754 5750 5749 5747 5746 5744 5743 5742 5739 5737 5737 5737 5734 5730 5727 5727 5727 5725 5722 5719 5718 5717 5715 5712 5709 5707 5704 5700 5696 5693 5690
5709 5705 5718 5733 5735 5741 5750 5748 5750 5752 5752 5750 5746 5742 5737 5738 5737 5736 5735 5734 5733 5731 5728 5728 5727 5726 5721 5719 5718 5717 5715 5711 5709 5707 5705 5703 5701 5699 5697 5695 5692 5688 5685 5681
5704 5706 5716 5724 5730 5737 5742 5742 5744 5745 5743 5741 5736 5732 5730 5728 5727 5726 5725 5724 5724 5721 5718 5716 5716 5715 5713 5712 5710 5708 5704 5700 5697 5695 5692 5689 5688 5685 5683 5682 5681 5679 5675 5672
5695 5699 5706 5711 5719 5726 5731 5735 5735 5734 5733 5730 5726 5723 5721 5718 5717 5716 5715 5714 5713 5710 5708 5706 5705 5705 5704 5703 5702 5698 5695 5691 5687 5683 5679 5675 5671 5667 5667 5663 5665 5667 5665 5662
5684 5695 5699 5701 5711 5718 5719 5720 5722 5721 5719 5718 5717 5712 5711 5709 5708 5707 5705 5704 5702 5700 5698 5696 5695 5694 5694 5694 5693 5691 5686 5682 5679 5675 5671 5667 5662 5655 5650 5651 5651 5651 5651 5649
5692 5698 5699 5700 5703 5708 5709 5710 5712 5711 5709 5707 5706 5704 5701 5699 5698 5697 5695 5693 5691 5689 5688 5686 5685 5684 5684 5684 5684 5681 5678 5674 5671 5668 5664 5660 5656 5652 5646 5640 5639 5638 5637 5636
5688 5688 5685 5688 5691 5696 5698 5699 5701 5700 5698 5697 5695 5693 5691 5688 5687 5685 5684 5682 5681 5680 5678 5677 5675 5673 5673 5674 5673 5671 5669 5666 5664 5661 5658 5655 5652 5648 5644 5639 5635 5629 5625 5624
5678 5680 5679 5682 5684 5685 5687 5687 5685 5684 5684 5684 5683 5682 5680 5678 5675 5674 5673 5672 5671 5669 5667 5667 5666 5664 5665 5665 5663 5661 5660 5658 5656 5654 5652 5649 5646 5643 5638 5633 5628 5623 5618 5615
5669 5672 5672 5672 5672 5674 5674 5674 5672 5672 5672 5672 5671 5670 5669 5668 5666 5665 5663 5662 5660 5658 5656 5656 5655 5655 5656 5655 5654 5652 5649 5648 5648 5647 5644 5641 5638 5634 5629 5624 5620 5616 5612 5608
5658 5658 5660 5661 5663 5664 5664 5664 5664 5664 5663 5662 5660 5659 5659 5657 5655 5654 5652 5651 5649 5647 5647 5646 5645 5646 5646 5646 5646 5644 5642 5640 5638 5638 5634 5631 5627 5624 5620 5616 5611 5606 5602 5599
5655 5657 5658 5658 5656 5655 5655 5656 5655 5654 5652 5652 5651 5649 5647 5645 5644 5642 5641 5640 5639 5637 5636 5636 5636 5636 5636 5636 5636 5635 5634 5631 5629 5626 5623 5620 5616 5613 5609 5605 5601 5597 5593 5590
5648 5650 5651 5650 5649 5648 5647 5646 5645 5644 5643 5643 5640 5638 5636 5635 5634 5633 5632 5630 5628 5626 5624 5625 5625 5627 5626 5626 5626 5626 5625 5622 5619 5616 5613 5608 5607 5604 5600 5597 5593 5588 5584 5579
5641 5642 5642 5641 5641 5640 5638 5637 5637 5636 5634 5633 5631 5628 5626 5625 5624 5623 5622 5621 5619 5617 5616 5616 5617 5617 5617 5617 5618 5618 5616 5613 5610 5607 5604 5601 5598 5594 5590 5587 5582 5578 5572 5567
5632 5632 5632 5632 5631 5630 5630 5629 5628 5626 5624 5623 5621 5619 5617 5616 5616 5615 5613 5610 5607 5608 5608 5607 5608 5608 5608 5607 5608 5608 5606 5603 5601 5598 5595 5591 5587 5583 5579 5575 5570 5565 5561 5555
5623 5623 5623 5623 5621 5620 5620 5619 5619 5617 5615 5614 5612 5611 5609 5607 5607 5605 5603 5601 5599 5598 5600 5600 5599 5597 5597 5598 5599 5598 5596 5594 5590 5588 5584 5580 5576 5572 5567 5562 5558 5553 5548 5543
5614 5614 5614 5614 5613 5613 5612 5611 5611 5609 5608 5606 5604 5603 5603 5602 5602 5599 5594 5593 5593 5591 5592 5590 5587 5587 5587 5590 5589 5587 5585 5582 5580 5577 5573 5569 5565 5561 5555 5551 5546 5541 5535 5531
5605 5605 5606 5607 5607 5607 5604 5604 5604 5603 5601 5600 5599 5599 5598 5596 5593 5591 5588 5584 5584 5583 5582 5579 5579 5579 5579 5581 5580 5577 5575 5572 5570 5567 5563 5559 5555 5550 5545 5540 5535 5530 5525 5520
5598 5599 5600 5600 5600 5599 5598 5597 5596 5596 5595 5594 5593 5592 5592 5590 5588 5585 5582 5579 5576 5577 5575 5572 5572 5572 5573 5574 5571 5568 5565 5562 5559 5556 5552 5548 5543 5538 5533 5529 5524 5520 5515 5509
5592 5593 5594 5595 5595 5594 5594 5594 5592 5591 5591 5589 5587 5586 5585 5583 5580 5578 5576 5575 5573 5571 5570 5568 5567 5566 5566 5564 5561 5558 5554 5551 5548 5545 5541 5536 5532 5527 5523 5518 5513 5509 5504 5499
5589 5588 5588 5589 5588 5589 5590 5589 5588 5587 5586 5585 5582 5580 5579 5577 5575 5574 5572 5570 5568 5567 5566 5564 5562 5560 5558 5555 5551 5548 5545 5541 5538 5534 5529 5525 5521 5516 5512 5507 5503 5498 5494 5489